AirNav   Everest Fuels
 
 1083 users online  

WI23 Cornucopia Field Airport
Cornucopia, Wisconsin, USA

GOING TO CORNUCOPIA?


FAA INFORMATION EFFECTIVE 10 SEPTEMBER 2020

Location

FAA Identifier: WI23
Lat/Long: 46-51-59.7550N 091-05-00.6710W
46-51.995917N 091-05.011183W
46.8665986,-91.0835197
(estimated)
Elevation: 760 ft. / 232 m (estimated)
Variation: 01E (1985)
From city: 1 mile W of CORNUCOPIA, WI
Time zone: UTC -5 (UTC -6 during Standard Time)
Zip code: 54827

Airport Operations

Airport use: Private use. Permission required prior to landing
Activation date: 07/1968
Control tower: no
ARTCC: MINNEAPOLIS CENTER
FSS: GREEN BAY FLIGHT SERVICE STATION
Attendance: UNATNDD
Wind indicator: yes
Segmented circle: no

Airport Communications

WX AWOS-3PT at 4R5 (14 nm E): 119.375 (715-747-5519)

Nearby radio navigation aids

NDB name  Hdg/Dist  Freq  Var  ID
SILVER BAY150/26.735000EBFW -... ..-. .--

Airport Services

Parking: tiedowns
Airframe service: NONE
Powerplant service: NONE

Runway Information

Runway 5/23

Dimensions: 2010 x 80 ft. / 613 x 24 m
Surface: turf, in fair condition
RUNWAY 5  RUNWAY 23
Traffic pattern: leftleft
Obstructions: 5 ft. brush, 45 ft. right of centerline4 ft. trees, 54 ft. right of centerline

Airport Ownership and Management from official FAA records

Ownership: Publicly-owned
Owner: TOWN OF BELL
CORNUCOPIA MEN CLUB; BOX 113
CORNUCOPIA, WI 54827
Phone 715-742-3924
Manager: TIM KASENO
BOX 296
CORNUCOPIA, WI 54827
Phone 612-877-1095

Airport Operational Statistics

Aircraft operations: 80/year *
100% transient general aviation
* for 12-month period ending 21 July 2020

Additional Remarks

RY 05/23 HAS A 110' STWY ON SW END & 80' STWY ON NE END.
TERRAIN DROPS OFF APRXLY 8-10' IN LAST 200' OF RWY/STOPWAY SOUTHWEST END RWY 05/23.
FOR CD CTC MINNEAPOLIS ARTCC AT 651-463-5588.
FOR FLD CONDS, CALL 612-877-1095.

Instrument Procedures

There are no published instrument procedures at WI23.

Some nearby airports with instrument procedures:

4R5 - Major Gilbert Field Airport (14 nm E)
KASX - John F Kennedy Memorial Airport (20 nm S)
KTWM - Richard B Helgeson Airport (29 nm W)
3CU - Cable Union Airport (41 nm S)
KSUW - Richard I Bong Airport (43 nm W)
 
Loc | Ops | Rwys | IFR | FBO | Links
Com | Nav | Svcs | Stats | Notes
Area around WI23 (Cornucopia Field Airport)
 
Road maps at: MapQuest Bing Google
 
Aerial photo
WARNING: Photo may not be current or correct
Aerial photo of WI23 (Cornucopia Field Airport)
Photo taken 21-Jun-2019

Do you have a better or more recent aerial photo of Cornucopia Field Airport that you would like to share? If so, please send us your photo.

 
Sectional chart

 
Airport distance calculator
Flying to Cornucopia Field Airport? Find the distance to fly.

From to WI23

Sunrise and sunset
Times for 18-Sep-2020
 Local
(UTC-5)
 Zulu
(UTC)
Morning civil twilight06:1811:18
Sunrise06:4811:48
Sunset19:0800:08
Evening civil twilight19:3800:38

Current date and time
Zulu (UTC)  18-Sep-2020 12:57:07
Local (UTC-5)  18-Sep-2020 07:57:07
 
METAR
K4R5 
14nm E 
181255Z AUTO 00000KT 10SM CLR 00/00 A3044 RMK AO2 T00030000
KASX 
20nm S 
181253Z AUTO 21004KT 10SM CLR 00/M01 A3045 RMK AO2 SLP321 T00001011
KBFW 
24nm NW 
181155Z AUTO 00000KT 10SM M04/M06 A3043 RMK AO2
TAF
KIWD 
45nm SE 
181136Z 1812/1912 VRB03KT P6SM SKC
KDLH 
46nm W 
181133Z 1812/1912 VRB04KT P6SM SKC FM181600 22007KT P6SM SCT250 FM190100 16005KT P6SM SCT100 FM190800 21008KT P6SM SCT060
NOTAMs
Click for the latest NOTAMs
NOTAMs are issued by the DoD/FAA and will open in a separate window not controlled by AirNav.

 

 
 

Would you like to see your business listed on this page?

 If your business provides an interesting product or service to pilots, flight crews, aircraft, or users of the Cornucopia Field Airport, you should consider listing it here.  To start the listing process, click on the button below
 
Add a business
 

Other Pages about Cornucopia Field Airport

Update a link
 
Copyright © AirNav, LLC. All rights reserved. Privacy Policy  Contact